OpenBCM V1.08-5-g2f4a (Linux)

Packet Radio Mailbox

IZ3LSV

[San Dona' di P. JN]

 Login: GUEST





  
I0OJJ  > KEPS     17.08.25 01:45l 316 Lines 15020 Bytes #108 (0) @ AMSAT
BID : ORB25229.1
Read: GUEST
Subj: 2Line Orbital Elements 25229.AMSAT
Path: IZ3LSV<IK6IHL<IK7NXU<HB9ON<DK0WUE<PD0LPM<IR0AAB<I0OJJ
Sent: 250817/0025z @:I0OJJ.ITA.EU [Rome] obcm1.08-10-g596e
From: I0OJJ @ I0OJJ.ITA.EU (Gustavo)
To:   KEPS @ AMSAT
X-Info: This message was generated automatically


QST de KM1P

AMSAT Orbital Elements for Amateur Satellites in TLE Format
From Orbital Analysis Auxilliary Summer Office
New England Sci-Tech STEM Education Center
Narragansett RI August 17, 2025
To all radio amateurs


These element sets describe the orbits of various satellites 
in use by the amateur radio community. For details see:
www.amsat.org/keplerian-elements-formats/

A daily update of element sets is available at:
www.amsat.org/tle/daily-bulletin.txt
or without bulletin text:
www.amsat.org/tle/dailytle.txt


AO-07
1 07530U 74089B   25228.49461902 -.00000042  00000-0  24866-4 0  9994
2 07530 101.9963 233.4866 0012224 354.5817 158.2533 12.53690812322339
UO-11
1 14781U 84021B   25228.45234371  .00001346  00000-0  14677-3 0  9996
2 14781  97.7604 193.5056 0009294 108.5758 251.6470 14.89556283211744
AO-27
1 22825U 93061C   25228.39980854  .00000069  00000-0  43473-4 0  9993
2 22825  98.7318 290.2778 0007258 274.7466  85.2887 14.30818044663411
FO-29
1 24278U 96046B   25228.40356059 -.00000052  00000-0 -18000-4 0  9991
2 24278  98.5653 113.3461 0350132 166.7129 194.3530 13.53251769431944
NOAA-15
1 25338U 98030A   25228.75508468  .00000132  00000-0  71715-4 0  9994
2 25338  98.5335 252.2390 0010791 153.9147 206.2579 14.27012184418124
GO-32
1 25397U 98043D   25228.48144195  .00000065  00000-0  48305-4 0  9990
2 25397  98.9765 209.0366 0001920  47.3865 312.7474 14.24329675407959
ISS
1 25544U 98067A   25228.88262236  .00010102  00000-0  18493-3 0  9998
2 25544  51.6371   6.2262 0003468 225.3680 272.3192 15.49971360524574
NO-44
1 26931U 01043C   25228.47549970  .00000093  00000-0  65938-4 0  9990
2 26931  67.0521 312.2915 0006717 276.2004  83.8332 14.31762905246826
SO-50
1 27607U 02058C   25228.51843765  .00000977  00000-0  13803-3 0  9996
2 27607  64.5544 350.7941 0063487 319.4908  40.1480 14.81788306219299
CO-55
1 27844U 03031E   25228.48414570  .00000271  00000-0  13697-3 0  9993
2 27844  98.6777 235.8863 0009519 358.1957   1.9186 14.24041444148307
CO-57
1 27848U 03031J   25228.46442318  .00000232  00000-0  12152-3 0  9998
2 27848  98.6807 235.8211 0009805  15.5491 344.5987 14.23369780148026
RS-22
1 27939U 03042A   25228.77427537  .00001067  00000-0  17635-3 0  9999
2 27939  98.3342  39.9014 0012009 148.8401 335.9637 14.72495250170862
CO-58
1 28895U 05043F   25228.33087247  .00001528  00000-0  25579-3 0  9994
2 28895  98.2586  13.5682 0015682  92.5558 267.7444 14.71215008 56906
CO-65
1 32785U 08021C   25228.56784210  .00004061  00000-0  29022-3 0  9997
2 32785  97.7907 200.2813 0009119 355.7653   4.3494 15.05027243939303
CO-66
1 32791U 08021J   25228.47106012  .00010441  00000-0  48542-3 0  9999
2 32791  97.7328 210.1112 0001353 320.7455  39.3681 15.20167597940800
RS-30
1 32953U 08025A   25228.80909126  .00000043  00000-0  23755-3 0  9993
2 32953  82.5050 184.7506 0017880 256.8666 103.0419 12.43167216782006
NOAA-19
1 33591U 09005A   25228.72978397  .00000043  00000-0  46832-4 0  9990
2 33591  98.9928 293.8029 0014080 167.2433 192.9097 14.13396360851737
SRMSAT
1 37841U 11058D   25228.34291921  .00000394  00000-0  70281-4 0  9996
2 37841  19.9719 104.4781 0011800  90.6975  68.3324 14.11453143714692
ZACUBE-1
1 39417U 13066B   25228.43416746  .00004289  00000-0  36903-3 0  9991
2 39417  97.7847 185.1289 0043636 182.2377 177.8656 14.97187742635064
Delfi-N3xt
1 39428U 13066N   25228.51334489  .00005194  00000-0  52106-3 0  9994
2 39428  97.8294 145.4253 0084957 135.7678 225.0372 14.89061955629186
GOMX-1
1 39430U 13066Q   25228.72664296  .00001404  00000-0  22372-3 0  9994
2 39430  97.6771  83.1949 0131443 334.9358  24.5504 14.67877309625402
LO-74
1 39440U 13066AA  25228.56503367  .00003210  00000-0  32444-3 0  9996
2 39440  97.8511 172.6824 0060245 316.9139  42.7371 14.90412081631567
AO-73
1 39444U 13066AE  25228.46644255  .00004643  00000-0  34231-3 0  9998
2 39444  97.7848 190.6935 0042258 154.7615 205.5688 15.03091457633788
DTUSAT-2
1 40030U 14033W   25228.47460232  .00006104  00000-0  38960-3 0  9995
2 40030  98.0611 203.6338 0009055 178.7682 181.3569 15.09050320606636
EO-80
1 40032U 14033Y   25228.69033810  .00006190  00000-0  39413-3 0  9998
2 40032  98.0487 203.4202 0010053 124.7599 235.4576 15.09123560607160
LILACSAT-2
1 40908U 15049K   25228.78847755  .00010100  00000-0  25226-3 0  9992
2 40908  97.5049 250.8409 0006856 273.4448  86.6014 15.40341344548722
IO-86
1 40931U 15052B   25151.18580175  .00001241  00000-0  78118-4 0  9996
2 40931   6.0006  24.0987 0012733 338.8432  21.1169 14.78805930523159
Horyu-4
1 41340U 16012D   25228.48207749  .00022401  00000-0  54629-3 0  9990
2 41340  30.9975  34.4135 0007530  47.2681 312.8599 15.39613784523251
Lapan A3
1 41603U 16040E   25228.77754126  .00003215  00000-0  11205-3 0  9996
2 41603  97.1400 230.7335 0011827  35.0811 325.1207 15.30281296508210
CAS-2T
1 41847U 16066G   25228.60812548  .00000609  00000-0  96285-4 0  9995
2 41847  98.4165 302.4691 0344941 332.8633  25.4886 14.43654544460831
CAS-4B
1 42759U 17034B   25228.50412580  .00113733  00000-0  76913-3 0  9993
2 42759  43.0034 274.2900 0021062  45.9547 314.3053 15.73642244453269
CAS-4A
1 42761U 17034D   25228.53025350  .00110937  00000-0  68141-3 0  9991
2 42761  43.0069 270.3257 0021893  51.2749 309.0074 15.75825591453295
TechnoSat
1 42829U 17042E   25228.46814314  .00003241  00000-0  25009-3 0  9998
2 42829  97.3986  33.9480 0018217  53.8750 306.4158 15.02119292440910
AO-91
1 43017U 17073E   25228.59844510  .00006150  00000-0  31171-3 0  9996
2 43017  97.5143  97.6599 0168245 294.9219  63.4605 15.05784596419449
S-Net D
1 43186U 18014G   25228.59310449  .00004301  00000-0  25130-3 0  9992
2 43186  97.5542 130.8049 0008841   4.1187 356.0114 15.12402145412656
S-Net B
1 43187U 18014H   25228.46707169  .00004521  00000-0  26405-3 0  9998
2 43187  97.5546 130.6553 0009349 358.4831   1.6369 15.12380838412631
S-Net A
1 43188U 18014J   25228.59325324  .00004304  00000-0  25139-3 0  9994
2 43188  97.5555 130.9392 0009275 359.2902   0.8314 15.12407920412657
S-Net C
1 43189U 18014K   25228.60196644  .00004582  00000-0  26754-3 0  9990
2 43189  97.5569 130.9737 0010494 349.8643  10.2374 15.12378726411200
Ten-Koh
1 43677U 18084G   25228.47255680  .00001978  00000-0  16063-3 0  9998
2 43677  98.0842  43.4170 0008099  49.4015 310.7911 15.00850284370429
PO-101
1 43678U 18084H   25228.76734644  .00002075  00000-0  17835-3 0  9990
2 43678  98.1064  47.5188 0008971  67.7923 292.4249 14.98591595370592
QO-100
1 43700U 18090A   25228.54184229  .00000139  00000-0  00000-0 0  9999
2 43700   0.0137 101.8647 0001120  70.1745  13.9930  1.00272504 24622
MinXSS-2
1 43758U 18099A   25228.43288978  .00012893  00000-0  47964-3 0  9998
2 43758  97.4967 294.7571 0009888 274.5585  85.4524 15.27596402367325
AO-95
1 43770U 18099N   25228.16031840  .00007705  00000-0  37846-3 0  9990
2 43770  97.4862 285.5267 0009515 345.3270  14.7686 15.18303613366804
SNUSat 2
1 43782U 18099AA  25228.10700990  .00006424  00000-0  34264-3 0  9994
2 43782  97.4546 281.6663 0010213 279.7861  80.2218 15.15461841366721
SnugLite
1 43784U 18099AC  25228.70277372  .00008030  00000-0  39082-3 0  9993
2 43784  97.4358 281.9579 0001807 272.6419  87.4608 15.18644510366971
ITASat 1
1 43786U 18099AE  25228.58651850  .00004507  00000-0  25364-3 0  9991
2 43786  97.4513 281.4412 0013083 337.2346  22.8303 15.13679578366740
EAGLET 1
1 43790U 18099AJ  25228.10822631  .00003712  00000-0  23497-3 0  9993
2 43790  97.4709 280.6978 0010827 323.1398  36.9086 15.09546154366252
ESEO
1 43792U 18099AL  25228.52116469  .00001414  00000-0  10978-3 0  9993
2 43792  97.4443 273.4429 0010017 294.5680  65.4502 15.02838801366027
JO-97
1 43803U 18099AX  25228.12795441  .00009910  00000-0  43450-3 0  9995
2 43803  97.4610 286.6420 0005892 264.2458  95.8107 15.22173554367045
Suomi 100
1 43804U 18099AY  25228.12386833  .00007984  00000-0  37874-3 0  9999
2 43804  97.4673 285.7321 0010529 270.9326  89.0702 15.19496519366956
ISAT
1 43879U 18111D   25228.33691106  .00018037  00000-0  57999-3 0  9992
2 43879  97.5886 144.3176 0006282 334.3643  25.7286 15.32295104364067
UWE-4
1 43880U 18111E   25228.31021317  .00014123  00000-0  52346-3 0  9996
2 43880  97.5834 142.2688 0010274 343.9751  16.1162 15.27693737363962
Sparrow
1 43881U 18111F   25228.52228097  .00020279  00000-0  62368-3 0  9998
2 43881  97.6044 147.6612 0006430  23.0919 337.0611 15.33691724364195
Prox-1
1 44339U 19036A   25228.62354382  .00009238  00000-0  11268-2 0  9996
2 44339  23.9979 334.4364 0007700 121.3333 238.7919 14.81181947328119
Taurus 1
1 44530U 19059C   25228.69838490  .00005338  00000-0  97088-3 0  9990
2 44530  98.6135  11.3825 0009657 178.9776 181.1448 14.66544279313925
Duchifat 3
1 44854U 19089C   25228.48683388  .00051169  00000-0  80692-3 0  9999
2 44854  36.9404 281.6712 0005574 155.7833 204.3188 15.52499664313557
TO-108
1 44881U 19093C   25228.71968443  .00000789  00000-0  96918-4 0  9999
2 44881  97.7888 302.9371 0013972  14.0056 346.1544 14.85721206306199
FloripaSat 1
1 44885U 19093G   25228.71253187  .00004420  00000-0  36856-3 0  9995
2 44885  97.8132 316.4754 0008944 340.1476  19.9397 14.99094991306957
RS-44
1 44909U 19096E   25228.57167175  .00000035  00000-0  88655-4 0  9993
2 44909  82.5236 182.1091 0218168 136.3657 225.4929 12.79742510263386
UPMSat 2
1 46276U 20061E   25228.47931970  .00109545  00000-0  59563-3 0  9998
2 46276  97.2361 305.6075 0001774 204.3626 155.7559 15.79670614276146
SALSAT
1 46495U 20068K   25228.67624151  .00006095  00000-0  25765-3 0  9993
2 46495  97.8663 209.9109 0009148 288.3194  71.7046 15.23599899268894
